Jaffrey, NH

2:04 PM EST on December 17, 2017 (GMT -0500)
Jaffrey Airport-Silver Ranch

Weather History for KAFN - December, 2013

Change the Weather History Date:

Wednesday, December 25, 2013

  Actual Average Record
Temperature  
Mean Temperature 14 °F -  
Max Temperature 19 °F 31 °F 60 °F (2015)
Min Temperature 8 °F 15 °F 3 °F (2000)
Degree Days  
Heating Degree Days 52    
Moisture  
Dew Point 0 °F    
Average Humidity 52    
Maximum Humidity 62    
Minimum Humidity 40    
Precipitation  
Precipitation 0.00 in - - ()
Sea Level Pressure  
Sea Level Pressure 30.43 in    
Wind  
Wind Speed 7 mph (NW)    
Max Wind Speed 16 mph    
Max Gust Speed 26 mph    
Visibility 10 miles    
Events      
Averages and records for this station are not official NWS values.
T = Trace of Precipitation, MM = Missing Value Source: NWS Daily Summary

Daily Weather History Graph

Daily Weather History Graph

Search for Another Location

Airport or City:

Trip Planner

Search our weather history database for the weather conditions in past years. The results will help you decide how hot, cold, wet, or windy it might be!

Date:

Astronomy

Dec. 25, 2013 Rise Set
Actual Time 7:17 AM EST 4:19 PM EST
Civil Twilight 6:44 AM EST 4:51 PM EST
Nautical Twilight 6:09 AM EST 5:27 PM EST
Astronomical Twilight 5:34 AM EST 6:01 PM EST
Moon No Moon Rise 11:29 AM EST (12/25)
Length of Visible Light 10h 06m
Length of Day
9h 02m
Waning Gibbous, 49% of the Moon is Illuminated
Dec 25
Waning Gibbous
Jan 1
New
Jan 7
First Quarter
Jan 15
Full
Jan 24
Last Quarter

Hourly Weather History & Observations

Time (EST) Temp. Windchill Dew Point Humidity Pressure Visibility Wind Dir Wind Speed Gust Speed Precip Events Conditions
12:15 AM 19.0 °F 9.0 °F 6.1 °F 57% 30.16 in 10.0 mi WNW 8.1 mph 18.4 mph 0.00 in   Overcast
12:52 AM 18.0 °F 5.4 °F 1.9 °F 50% 30.23 in 9.0 mi WNW 11.5 mph 23.0 mph 0.00 in   Mostly Cloudy
1:52 AM 17.1 °F 2.0 °F 1.9 °F 52% 30.25 in 10.0 mi WNW 16.1 mph 26.5 mph N/A   Partly Cloudy
2:52 AM 15.1 °F 1.1 °F 1.9 °F 56% 30.30 in 10.0 mi NW 12.7 mph 21.9 mph N/A   Mostly Cloudy
3:52 AM 12.9 °F 2.6 °F 1.9 °F 62% 30.32 in 10.0 mi Variable 6.9 mph - N/A   Partly Cloudy
4:52 AM 10.0 °F -0.9 °F -0.9 °F 61% 30.35 in 10.0 mi North 6.9 mph - N/A   Clear
5:52 AM 9.0 °F -3.2 °F -2.9 °F 59% 30.38 in 10.0 mi NW 8.1 mph - N/A   Clear
6:52 AM 9.0 °F -2.2 °F -2.9 °F 59% 30.41 in 10.0 mi Variable 6.9 mph - N/A   Clear
7:52 AM 8.1 °F -2.0 °F -2.9 °F 61% 30.45 in 10.0 mi North 5.8 mph - N/A   Clear
8:52 AM 9.0 °F -2.2 °F -2.9 °F 59% 30.48 in 10.0 mi Variable 6.9 mph - N/A   Clear
9:52 AM 10.9 °F 2.9 °F -2.9 °F 54% 30.50 in 10.0 mi NNW 4.6 mph - N/A   Clear
10:52 AM 14.0 °F 5.1 °F -2.9 °F 47% 30.48 in 10.0 mi Variable 5.8 mph - N/A   Clear
11:52 AM 16.0 °F 10.4 °F -2.9 °F 43% 30.47 in 10.0 mi Variable 3.5 mph - N/A   Clear
12:52 PM 18.0 °F 11.1 °F -2.9 °F 40% 30.47 in 10.0 mi Variable 4.6 mph - N/A   Clear
1:52 PM 19.0 °F 12.3 °F -2.0 °F 40% 30.46 in 10.0 mi Variable 4.6 mph - N/A   Clear
2:52 PM 18.0 °F - -2.9 °F 40% 30.48 in 10.0 mi Calm Calm - N/A   Clear
3:52 PM 18.0 °F - -2.0 °F 41% 30.50 in 10.0 mi Calm Calm - N/A   Clear
4:52 PM 18.0 °F - -0.0 °F 45% 30.51 in 10.0 mi Calm Calm - N/A   Clear
5:52 PM 18.0 °F - -0.0 °F 45% 30.52 in 10.0 mi Calm Calm - N/A   Clear
6:52 PM 16.0 °F 10.4 °F 1.0 °F 52% 30.52 in 10.0 mi SE 3.5 mph - N/A   Clear
7:52 PM 15.1 °F 9.4 °F 1.0 °F 54% 30.52 in 10.0 mi SE 3.5 mph - N/A   Partly Cloudy
8:52 PM 14.0 °F - 1.9 °F 59% 30.52 in 10.0 mi Calm Calm - N/A   Partly Cloudy
9:52 PM 15.1 °F 9.4 °F 1.0 °F 54% 30.51 in 10.0 mi Variable 3.5 mph - N/A   Overcast
10:52 PM 15.1 °F - 1.0 °F 54% 30.50 in 10.0 mi Calm Calm - N/A   Mostly Cloudy
11:52 PM 15.1 °F 9.4 °F 1.9 °F 56% 30.48 in 10.0 mi South 3.5 mph - N/A   Overcast